Tracking 18957 objects as of 22-Jan-2018
HD Live streaming from Space Station
objects crossing your sky now

ORBCOMM FM 24

Track ORBCOMM FM 24 now!
10-day predictions
ORBCOMM FM 24 is classified as:


NORAD ID: 25478
Int'l Code: 1998-053D
Perigee: 788.9 km
Apogee: 791.4 km
Inclination: 45.0 °
Period: 100.5 minutes
Semi major axis: 7161 km
RCS: 0.622 m2 (medium)
Launch date: September 23, 1998
Source: ORBCOMM (ORB)
Launch site: Pegasus launched from Eastern Range Air Space (ERAS)
aabbcc
Your satellite tracking list
Your tracking list is empty




NASA's NSSDC Master Catalog

Two Line Element Set (TLE):
1 25478U 98053D   18021.51952480 +.00000051 +00000-0 +69860-4 0  9996
2 25478 045.0109 040.8720 0001719 257.3712 102.6942 14.32611861009391
Source of the keplerian elements: AFSPC